User: anonymous   Login
Location: Cutler
(25.6150°N, 80.3110°W)
Time: 18:04:09
(UTC-04:00)
Language:

Cosmos 2360 Rocket - Orbit

View from above orbital plane
View from above orbital plane
View from above satellite
View from above satellite

Ground track
Ground track

The orbit data is extracted from the following two-line orbital elements,

1 25407U 98045B   16206.87819594 -.00000303 +00000-0 -13015-3 0  9991
2 25407 071.0118 009.2518 0008701 331.0697 028.9943 14.15747365929589
Epoch (UTC): 24 July 2016 21:04:36
Eccentricity: 0.0008701
inclination: 71.0118°
perigee height: 833 km
apogee height: 846 km
right ascension of ascending node: 9.2518°
argument of perigee: 331.0697°
revolutions per day: 14.15747365
mean anomaly at epoch: 28.9943°
orbit number at epoch: 92958

The dashed part of the orbit path shows where the satellite is in the earth's shadow,  

DLR